Wind_Speed
8 8 9 9 9 10 9 9 9 10 11 12 12 12 11 11 11 11 11 11 9 10 11 12 12 12 12 12 13 13 14 14 15 17 18 19 19 20 19 20 20 20 21 21
8 9 10 10 10 11 11 10 11 11 12 12 12 12 12 12 12 12 12 11 11 11 12 12 12 12 12 12 12 12 13 14 16 18 19 20 19 19 19 19 20 20 20 21
9 10 11 11 11 11 11 10 12 12 12 12 13 13 13 13 13 13 12 12 11 11 11 12 13 13 12 12 12 13 13 15 16 17 19 19 18 18 19 19 19 20 21 21
9 10 11 12 12 12 13 12 13 13 13 13 13 13 13 13 13 13 13 12 12 12 12 12 13 12 12 12 12 13 14 15 17 18 19 18 18 18 18 18 19 19 20 21
11 11 12 13 14 14 15 15 14 14 14 14 13 13 13 13 13 12 12 12 12 12 13 13 12 12 12 12 12 13 14 15 17 17 18 18 18 17 17 17 18 19 20 21
12 13 14 15 15 15 16 16 15 14 14 14 13 13 13 13 12 12 12 11 11 11 11 11 11 11 11 12 13 14 14 15 16 16 17 18 17 17 18 18 18 20 21 22
14 14 15 16 16 15 16 16 15 14 14 13 13 13 13 12 12 11 11 11 10 10 10 10 10 10 11 11 12 13 14 15 15 15 16 17 16 17 17 18 19 20 21 22
15 15 16 16 16 16 15 15 14 13 13 13 12 12 13 12 12 11 11 11 11 10 10 10 9 10 10 11 11 12 13 14 15 15 16 16 16 17 18 19 19 20 20 22
15 15 16 16 16 16 15 14 14 13 13 13 13 13 13 13 12 11 11 11 11 10 10 10 9 9 10 10 11 12 13 14 14 15 16 16 16 17 18 19 19 20 20 22
15 15 16 17 16 16 15 15 14 13 13 13 13 13 13 12 12 11 11 10 10 9 9 9 9 9 10 10 11 11 12 13 14 15 15 15 16 17 18 19 20 21 22 23
16 16 17 17 17 16 15 14 13 13 13 13 13 13 12 11 12 11 10 9 8 8 8 8 8 9 10 10 10 10 11 13 13 14 15 15 16 17 18 19 20 22 23 24
17 17 17 17 16 16 15 14 13 13 13 14 13 12 11 11 11 10 9 8 7 7 7 7 8 8 8 8 8 10 11 12 12 13 14 14 15 17 18 19 20 22 24 25
19 18 18 18 17 16 15 14 13 14 14 14 13 12 12 12 11 9 8 8 7 7 7 6 7 7 7 7 8 9 10 11 11 13 13 14 15 17 18 19 21 23 25 26
20 19 19 18 17 16 15 15 14 14 14 14 12 11 11 10 10 9 8 7 7 6 6 6 6 6 6 7 7 8 9 10 11 12 13 14 16 17 17 19 21 23 25 26
20 20 20 19 18 16 16 15 15 14 13 12 11 11 10 9 9 8 8 7 7 6 6 5 5 5 5 5 6 7 8 9 10 11 13 14 16 17 18 19 21 23 24 26
20 20 19 18 17 16 15 15 14 13 11 10 10 10 9 9 8 8 7 6 6 6 6 5 5 4 4 4 6 6 7 8 9 11 13 14 16 17 18 19 21 22 24 25
20 19 18 17 16 15 14 13 12 12 10 10 9 9 9 9 8 7 6 5 5 5 4 4 4 4 4 4 5 6 7 8 9 10 12 14 15 17 18 20 21 23 24 25
18 18 17 16 15 14 13 12 11 11 10 9 9 9 8 8 7 6 5 5 5 5 4 4 4 4 4 4 5 6 7 8 9 11 12 13 15 16 18 19 21 23 24 26
18 17 16 15 14 13 12 11 11 10 10 9 9 8 8 8 7 6 5 5 5 5 5 4 4 4 4 5 5 6 7 8 9 11 12 13 14 16 17 19 21 23 25 26
18 17 16 15 14 13 12 11 10 10 10 9 9 8 7 7 6 6 5 5 5 5 4 5 5 4 4 4 5 6 7 8 9 10 11 12 14 16 17 19 20 22 24 26
18 17 17 15 14 13 12 12 11 11 10 9 9 8 8 7 6 6 5 5 5 5 5 4 4 4 4 5 6 6 7 8 9 10 11 12 14 15 16 18 20 22 23 25
19 18 17 16 14 13 13 13 12 11 10 9 9 9 8 7 7 7 6 6 6 5 5 5 4 4 5 6 6 7 7 8 9 10 11 12 13 15 16 18 19 21 23 25
20 19 18 17 16 14 14 13 13 12 11 10 9 9 8 8 8 7 7 7 6 6 6 5 5 5 6 7 7 7 8 8 9 10 11 12 13 14 16 18 19 21 22 24
22 20 19 18 17 16 15 14 13 13 12 11 10 9 8 8 7 7 7 7 7 7 7 7 6 6 7 7 7 8 8 9 9 10 11 11 13 14 15 17 18 20 21 23
23 22 21 20 19 18 17 16 15 14 13 12 11 10 9 9 8 8 8 8 8 8 8 8 7 7 7 7 8 8 9 9 10 10 10 11 12 14 15 16 18 19 21 23
25 24 23 22 21 20 18 17 16 15 14 14 13 12 11 10 10 10 9 9 9 8 8 9 9 9 8 8 8 8 9 9 10 10 10 11 12 13 15 16 17 19 21 22
25 25 24 23 22 21 20 19 18 17 15 15 14 13 13 12 11 11 10 10 9 9 9 9 9 9 9 9 8 8 9 9 9 10 11 11 12 13 14 16 17 19 20 21
Wind_Direction
342 341 339 335 337 336 329 328 324 321 319 317 317 310 310 309 305 304 303 300 297 297 300 306 310 312 313 312 312 312 311 313 314 315 316 316 316 317 318 318 317 318 318 317
339 339 337 332 331 327 321 320 319 316 314 314 314 311 308 307 307 304 300 299 297 296 300 306 309 312 311 310 312 313 315 317 320 319 317 318 318 319 322 323 321 320 321 321
333 333 331 334 334 331 327 321 318 316 317 316 313 313 310 308 305 309 305 302 299 299 300 306 308 309 309 310 313 316 318 319 322 324 323 322 322 322 325 327 326 325 324 324
327 329 331 332 331 328 323 321 318 315 313 313 314 315 313 310 309 310 309 304 301 301 302 305 308 308 309 312 314 317 320 321 322 323 328 329 328 327 329 328 327 327 328 327
323 324 325 323 323 322 320 320 317 315 315 315 313 313 312 312 312 311 310 306 304 302 302 304 305 307 309 313 317 319 322 323 326 326 329 331 330 329 331 333 332 331 330 329
317 317 319 319 321 319 319 318 317 316 316 313 313 311 310 311 310 307 308 306 305 304 304 305 305 308 312 316 321 323 324 326 328 329 332 333 333 334 335 336 334 333 334 333
314 315 314 316 319 319 319 320 318 317 317 315 312 311 313 313 310 305 303 303 303 306 306 307 306 306 310 316 322 326 327 329 332 334 335 336 336 337 339 339 338 336 335 335
312 314 312 314 316 317 319 320 317 315 314 314 313 313 314 314 309 305 302 300 301 303 303 304 304 306 311 315 321 325 328 333 337 339 339 339 339 340 341 341 341 339 337 337
307 310 311 314 315 316 317 317 316 314 314 315 313 312 313 312 310 306 303 299 299 300 300 302 303 307 309 313 319 325 330 335 339 343 343 343 344 345 344 344 344 343 342 343
302 305 308 311 312 312 310 311 311 311 310 311 311 309 311 312 310 307 305 301 300 300 303 305 306 308 311 313 318 327 334 339 343 347 349 349 349 349 348 348 349 348 347 347
296 299 304 307 308 308 306 305 304 306 306 307 311 311 312 309 309 309 307 304 302 301 304 308 310 311 313 315 320 328 336 343 346 349 351 353 354 353 353 353 354 354 354 352
292 296 301 303 304 305 305 304 303 303 304 306 307 309 310 308 309 307 302 299 300 300 304 310 312 312 315 320 326 331 339 345 348 351 354 356 356 356 357 358 358 357 357 357
288 292 296 298 299 301 303 302 301 302 303 305 302 305 308 310 311 308 303 302 300 300 305 314 318 318 318 324 328 335 342 348 351 353 356 357 358 358 358 360 1 1 2 1
285 289 291 292 295 295 297 299 298 298 300 300 301 305 305 307 309 306 305 303 299 299 304 310 312 315 320 328 334 340 346 350 353 355 356 357 358 360 1 2 3 3 3 3
283 286 289 290 291 291 292 295 296 296 297 294 298 302 302 302 302 299 299 300 296 297 302 304 305 309 319 328 337 341 344 348 352 355 356 357 360 1 2 3 3 3 3 3
279 283 285 287 288 288 289 290 291 291 291 290 291 294 293 293 296 297 298 298 297 297 296 298 300 305 317 327 332 337 342 347 351 353 355 357 360 2 3 3 3 3 3 3
277 279 280 282 284 284 286 285 283 284 284 287 288 290 288 289 292 292 293 294 297 295 297 297 295 296 307 316 324 333 340 344 347 350 354 358 360 1 1 2 3 3 4 4
274 276 278 279 279 280 280 278 277 280 284 284 284 284 287 288 287 282 278 279 283 286 292 295 290 287 295 307 325 336 341 344 346 349 352 355 357 359 1 2 2 2 4 3
270 271 272 272 270 270 271 269 269 273 279 280 280 279 280 280 275 261 261 268 275 283 286 286 283 282 291 310 327 334 339 341 344 347 349 352 355 357 359 1 1 2 3 4
263 265 264 262 261 261 262 262 265 269 274 277 277 273 272 271 264 255 257 258 268 276 276 278 279 281 296 313 323 328 332 334 339 343 345 348 352 355 357 359 360 1 2 3
257 258 256 256 256 256 258 258 261 265 269 271 270 264 264 262 257 247 248 260 267 265 271 282 284 289 304 312 317 324 330 333 337 340 343 347 350 353 355 356 358 359 360 2
250 250 249 250 252 254 256 256 257 260 263 265 264 260 255 253 249 245 249 258 262 260 269 277 281 290 303 310 316 322 327 330 332 335 340 344 347 350 352 353 355 357 358 -0
245 245 243 244 247 250 253 252 253 255 256 256 257 254 250 249 245 246 253 259 262 261 268 277 283 289 297 305 312 317 321 323 326 330 336 341 346 347 349 352 354 356 357 359
242 242 241 241 243 247 248 249 250 250 249 248 247 246 245 244 244 248 253 258 259 259 265 274 282 288 293 300 308 314 316 318 321 325 332 339 342 345 347 350 353 354 355 357
239 239 240 241 243 245 246 247 248 245 242 240 239 241 240 239 243 247 249 252 257 261 264 270 278 286 291 295 301 306 310 313 317 321 328 334 338 342 345 348 350 352 354 355
238 238 238 240 242 243 244 245 244 241 237 236 237 240 240 239 242 244 245 249 257 266 270 271 276 282 287 293 297 299 304 310 314 319 324 329 333 338 342 344 347 349 351 353
237 236 237 238 240 242 242 241 239 237 235 234 236 238 239 241 242 242 244 250 260 267 272 274 277 280 282 288 294 296 300 304 309 315 319 323 328 334 338 341 344 346 348 351
Height
5815 5813 5811 5809 5807 5806 5804 5802 5800 5798 5796 5794 5792 5790 5788 5787 5785 5784 5782 5781 5780 5779 5778 5777 5776 5774 5772 5770 5768 5766 5765 5762 5759 5756 5753 5750 5747 5743 5740 5736 5732 5729 5725 5722
5814 5812 5810 5808 5806 5804 5802 5800 5798 5796 5794 5792 5789 5788 5786 5784 5783 5781 5779 5778 5777 5776 5775 5774 5773 5771 5769 5767 5766 5764 5762 5759 5756 5753 5750 5747 5743 5740 5736 5732 5729 5725 5721 5717
5812 5810 5809 5807 5805 5802 5799 5797 5796 5794 5792 5789 5787 5785 5783 5781 5780 5778 5776 5775 5774 5773 5772 5771 5770 5768 5767 5765 5763 5761 5759 5756 5754 5750 5747 5743 5740 5736 5733 5729 5725 5722 5717 5713
5811 5810 5807 5807 5803 5800 5797 5795 5793 5791 5789 5787 5784 5783 5780 5778 5777 5775 5774 5772 5771 5770 5769 5768 5767 5765 5764 5762 5761 5759 5757 5754 5751 5748 5744 5740 5737 5733 5730 5726 5722 5718 5714 5710
5809 5807 5805 5803 5800 5797 5795 5793 5790 5788 5786 5784 5782 5780 5778 5776 5774 5772 5771 5770 5768 5767 5766 5765 5764 5762 5761 5760 5758 5756 5754 5751 5748 5745 5742 5738 5734 5731 5727 5723 5720 5716 5711 5707
5806 5804 5802 5801 5797 5794 5793 5790 5787 5785 5783 5780 5778 5777 5776 5773 5771 5770 5769 5767 5766 5765 5763 5762 5761 5760 5758 5757 5755 5753 5751 5748 5746 5742 5739 5735 5732 5728 5724 5720 5717 5713 5708 5703
5803 5801 5799 5797 5794 5792 5790 5788 5784 5781 5779 5777 5775 5774 5773 5770 5769 5767 5766 5765 5763 5762 5761 5760 5758 5757 5756 5755 5753 5751 5748 5746 5743 5740 5736 5733 5729 5726 5722 5718 5714 5710 5705 5700
5800 5798 5797 5793 5790 5789 5787 5783 5780 5778 5776 5774 5772 5771 5769 5767 5766 5764 5763 5762 5761 5760 5759 5757 5756 5755 5754 5752 5751 5749 5746 5744 5741 5738 5734 5731 5727 5724 5720 5716 5712 5707 5702 5696
5797 5796 5792 5789 5787 5785 5782 5780 5778 5776 5773 5771 5769 5768 5766 5764 5762 5761 5759 5758 5757 5756 5756 5755 5754 5753 5751 5750 5748 5746 5744 5742 5739 5736 5732 5729 5725 5722 5718 5714 5709 5704 5699 5694
5792 5791 5788 5786 5784 5781 5779 5776 5774 5772 5770 5768 5766 5765 5763 5761 5759 5758 5756 5755 5754 5754 5753 5752 5751 5750 5749 5747 5746 5744 5742 5740 5737 5734 5731 5727 5724 5720 5716 5712 5707 5702 5697 5691
5788 5787 5784 5782 5779 5777 5775 5773 5771 5769 5767 5765 5763 5761 5760 5758 5757 5755 5753 5752 5751 5751 5750 5749 5749 5748 5747 5745 5743 5742 5740 5738 5735 5732 5729 5726 5722 5718 5714 5710 5706 5701 5695 5689
5783 5782 5780 5778 5775 5773 5771 5769 5767 5765 5764 5762 5760 5758 5757 5755 5754 5752 5751 5750 5749 5749 5748 5747 5746 5746 5744 5743 5742 5740 5739 5736 5733 5731 5728 5725 5721 5717 5713 5709 5704 5699 5693 5687
5778 5776 5774 5773 5771 5769 5767 5766 5764 5762 5760 5758 5757 5755 5754 5752 5751 5749 5748 5748 5747 5746 5746 5745 5744 5744 5743 5742 5740 5739 5737 5735 5732 5730 5727 5724 5720 5716 5712 5708 5703 5698 5692 5686
5772 5771 5770 5768 5767 5765 5763 5762 5760 5758 5757 5755 5754 5752 5751 5750 5749 5747 5746 5746 5745 5744 5744 5743 5743 5742 5741 5740 5739 5737 5736 5734 5731 5729 5726 5723 5719 5715 5711 5706 5702 5697 5691 5685
5766 5765 5764 5762 5761 5760 5759 5758 5756 5755 5754 5752 5751 5750 5749 5748 5747 5746 5745 5744 5743 5743 5742 5741 5741 5740 5739 5739 5738 5736 5735 5733 5730 5728 5725 5722 5718 5714 5710 5705 5701 5696 5690 5684
5759 5759 5758 5757 5756 5755 5754 5753 5752 5752 5750 5749 5748 5747 5747 5746 5745 5744 5743 5742 5742 5741 5741 5740 5739 5739 5738 5737 5736 5735 5733 5732 5729 5727 5724 5721 5717 5714 5709 5705 5700 5695 5689 5683
5753 5752 5752 5752 5751 5751 5750 5749 5749 5748 5747 5746 5746 5745 5744 5743 5743 5742 5741 5741 5740 5739 5739 5738 5738 5737 5737 5736 5735 5733 5732 5730 5728 5726 5723 5720 5717 5713 5709 5704 5700 5695 5689 5683
5746 5747 5746 5746 5746 5746 5746 5745 5744 5744 5744 5743 5742 5742 5741 5741 5740 5740 5739 5739 5738 5738 5738 5737 5736 5736 5735 5734 5733 5732 5730 5729 5727 5724 5722 5719 5716 5712 5708 5704 5699 5694 5689 5683
5740 5741 5741 5741 5741 5741 5741 5741 5741 5740 5740 5740 5739 5739 5738 5738 5738 5738 5737 5737 5737 5736 5736 5735 5735 5734 5734 5733 5732 5730 5729 5727 5725 5723 5720 5718 5715 5711 5707 5703 5699 5694 5688 5683
5734 5734 5735 5735 5736 5736 5737 5737 5737 5737 5737 5736 5736 5736 5736 5735 5735 5735 5735 5735 5735 5735 5734 5734 5733 5733 5732 5731 5730 5729 5727 5725 5723 5721 5719 5716 5713 5710 5706 5702 5698 5693 5688 5682
5727 5728 5729 5730 5731 5731 5732 5732 5733 5733 5733 5733 5733 5733 5733 5733 5733 5733 5733 5733 5733 5733 5732 5732 5732 5731 5730 5729 5728 5727 5725 5724 5722 5720 5717 5715 5712 5709 5705 5701 5697 5692 5687 5682
5721 5722 5723 5724 5725 5726 5727 5728 5728 5729 5729 5729 5729 5729 5730 5730 5730 5731 5731 5731 5731 5731 5730 5730 5730 5729 5729 5727 5726 5725 5723 5722 5720 5718 5715 5713 5710 5707 5704 5700 5696 5692 5687 5682
5714 5715 5717 5718 5720 5721 5722 5723 5724 5724 5725 5725 5726 5726 5727 5727 5727 5728 5729 5729 5729 5729 5728 5728 5728 5727 5726 5725 5724 5723 5721 5719 5718 5716 5713 5711 5708 5706 5702 5699 5695 5690 5686 5681
5707 5709 5710 5712 5713 5715 5716 5718 5719 5720 5720 5721 5722 5723 5723 5724 5724 5725 5726 5726 5726 5726 5726 5726 5725 5725 5724 5723 5722 5720 5719 5717 5716 5714 5711 5709 5706 5704 5701 5697 5694 5689 5685 5680
5699 5701 5703 5705 5707 5709 5710 5712 5713 5715 5716 5717 5718 5719 5720 5721 5721 5722 5723 5723 5723 5723 5723 5723 5722 5722 5721 5720 5719 5718 5716 5715 5713 5711 5709 5707 5704 5702 5699 5695 5692 5688 5684 5679
5691 5694 5696 5698 5701 5703 5704 5706 5708 5709 5711 5712 5714 5715 5716 5717 5718 5719 5719 5720 5720 5720 5720 5719 5719 5718 5718 5717 5716 5714 5713 5712 5710 5709 5707 5705 5702 5700 5697 5694 5690 5687 5682 5678
5683 5686 5689 5691 5694 5696 5698 5700 5702 5704 5705 5707 5709 5710 5712 5713 5714 5715 5715 5716 5716 5716 5716 5716 5715 5715 5714 5713 5712 5711 5710 5709 5708 5706 5704 5702 5700 5697 5695 5692 5688 5685 5681 5677